Wind_Speed
18 18 20 21 21 20 22 24 23 21 20 19 19 18 17 18 19 20 21 19 18 17 17 17 17 17 17 19 20 21 23 25 24 23 21 19 19 19 19 20 21 22
21 20 21 23 24 24 24 26 26 25 24 22 21 19 17 18 20 20 20 20 18 18 18 18 18 18 18 19 20 21 23 25 24 23 21 20 19 19 20 21 21 21
21 21 22 22 24 24 25 26 26 26 27 26 23 19 19 20 21 21 21 21 21 20 20 20 20 19 19 19 20 22 23 24 24 23 21 20 20 20 20 21 20 19
20 21 22 22 23 25 26 27 27 27 28 28 24 21 21 22 23 23 23 22 22 23 23 22 21 20 20 20 21 22 24 24 23 22 21 21 20 20 20 20 18 17
21 22 23 23 23 25 27 28 28 27 26 26 25 24 25 25 25 26 25 23 22 22 23 22 21 20 20 21 22 23 24 24 23 23 22 21 20 20 19 18 17 14
22 23 24 24 24 25 26 26 27 27 24 24 25 26 26 27 28 29 27 25 23 21 21 22 21 20 20 21 22 24 24 23 23 23 22 20 20 19 17 16 14 13
25 26 26 26 26 25 25 25 26 26 24 24 25 26 26 27 30 31 28 26 24 21 20 21 21 20 20 21 21 22 23 22 22 21 21 20 19 18 16 14 13 12
29 29 29 28 28 27 26 25 24 25 25 25 26 26 26 27 29 31 30 27 25 23 21 21 22 21 20 20 20 20 21 21 20 20 20 20 19 16 14 13 12 11
33 32 31 31 30 30 29 27 25 25 25 27 27 27 26 27 28 30 30 28 26 25 23 22 22 22 21 20 19 19 19 19 19 20 20 19 18 15 13 12 11 11
37 37 36 35 33 32 31 30 28 27 26 27 28 28 27 26 26 28 31 31 29 27 25 24 23 23 22 21 19 19 18 18 18 19 19 18 16 14 12 11 11 11
40 41 41 40 39 37 35 33 31 30 28 28 27 27 26 26 25 27 29 31 30 28 26 25 24 23 23 22 20 19 18 17 17 17 17 16 14 12 11 10 10 11
42 43 44 44 43 42 39 36 34 32 30 30 29 27 26 26 26 27 28 30 32 30 27 26 25 23 23 22 21 19 18 17 16 16 16 15 13 12 10 9 10 11
42 44 45 46 47 46 43 40 37 34 31 30 30 29 27 26 26 27 28 29 30 30 27 26 25 23 23 22 21 19 18 17 16 15 14 13 12 11 9 9 10 11
44 45 47 48 49 49 47 43 39 36 32 30 30 30 28 26 26 27 28 28 28 27 25 25 25 24 23 22 21 20 18 17 16 14 13 12 13 11 9 10 11 10
47 48 49 49 50 50 49 47 43 39 35 31 29 30 30 28 27 27 27 27 27 26 25 26 26 25 23 21 21 20 19 17 15 14 12 13 13 11 10 11 11 10
52 52 52 52 52 51 51 50 47 43 37 33 30 29 29 30 30 28 26 26 26 24 25 28 28 25 23 21 21 21 19 17 16 14 13 13 14 12 11 11 11 9
58 57 57 57 55 54 52 51 50 47 41 35 31 28 27 29 32 32 29 26 26 24 25 27 27 26 24 22 22 22 20 18 16 15 14 14 14 14 13 12 11 10
63 62 61 61 59 57 55 53 51 49 45 39 32 27 25 27 31 33 31 27 26 26 25 26 27 26 24 23 23 23 22 19 17 15 14 15 15 15 14 12 11 10
68 67 64 62 61 58 55 53 51 49 46 42 35 28 24 25 29 32 32 29 27 26 25 26 27 27 25 23 23 24 23 21 18 16 15 16 16 16 15 13 12 10
70 68 64 60 58 56 52 50 48 47 45 42 38 31 24 23 27 31 32 30 27 25 26 26 28 30 27 24 23 23 24 23 20 17 16 16 17 17 16 15 13 11
68 65 61 55 51 49 46 43 41 42 41 40 38 33 26 23 25 30 33 32 29 27 26 26 27 30 29 25 23 22 22 23 21 19 17 17 17 18 17 16 14 13
63 58 54 49 44 41 40 37 35 35 35 35 34 32 28 24 24 28 33 35 33 31 27 24 24 28 29 26 25 23 21 22 22 20 18 18 18 19 19 18 16 15
56 51 46 42 40 38 36 35 33 31 30 29 28 28 28 25 24 27 32 36 36 34 30 23 22 26 29 27 27 25 22 22 22 21 20 19 19 20 20 19 18 16
50 47 43 40 38 37 36 34 32 30 29 27 24 23 24 25 24 26 31 35 37 36 34 28 23 24 27 29 31 30 26 23 23 22 21 20 20 20 21 21 20 18
45 45 43 42 39 38 36 34 32 30 28 26 24 21 21 22 24 26 29 34 36 36 36 34 30 26 25 27 31 33 30 26 24 24 23 22 21 21 22 23 22 20
43 43 43 42 40 38 37 35 32 30 28 26 24 22 20 20 23 25 27 32 35 35 35 35 34 32 28 26 28 33 33 30 26 25 25 24 23 22 23 24 24 22
Wind_Direction
311 311 309 304 302 301 298 295 292 292 293 293 294 298 302 305 304 302 298 295 291 290 293 295 295 292 287 285 287 290 295 298 299 298 298 298 298 299 300 301 301 302
318 317 311 310 312 311 309 304 298 292 290 290 294 301 305 305 305 303 300 297 293 292 296 299 298 294 288 285 287 292 297 299 299 298 298 298 297 298 299 299 300 302
319 320 317 316 314 310 309 310 306 296 287 285 291 297 294 288 291 296 298 297 296 295 297 299 299 295 290 287 288 294 299 300 298 297 296 296 296 297 298 299 301 304
319 317 314 313 311 308 308 310 309 302 289 282 285 289 284 278 281 289 293 295 295 296 296 297 297 295 291 289 291 295 299 299 297 296 295 294 295 297 298 300 303 306
317 312 310 311 310 307 308 309 310 308 295 284 282 284 282 280 282 284 285 289 292 293 294 294 293 293 291 290 292 295 297 298 298 297 295 294 295 297 298 301 304 307
319 315 312 310 308 306 307 308 310 310 301 289 287 287 284 279 279 280 280 283 285 285 289 290 289 288 287 288 290 293 294 295 296 296 294 293 294 296 298 301 305 306
320 317 314 310 308 306 306 307 308 307 302 292 289 291 288 280 276 278 280 281 282 281 281 285 286 284 283 284 286 289 291 292 293 293 293 293 293 294 296 300 303 303
319 317 315 312 309 306 305 305 304 301 297 293 292 292 293 287 279 277 278 277 279 281 280 280 282 282 280 280 283 285 286 287 289 289 290 291 291 292 295 297 299 298
318 317 314 312 309 306 305 303 300 296 293 292 293 294 295 293 285 278 274 272 273 278 280 279 279 279 279 278 280 282 282 282 284 285 287 288 287 290 291 292 293 295
316 315 314 312 309 306 303 301 298 295 292 291 292 293 294 294 289 280 274 270 269 271 275 278 278 277 277 276 276 278 277 277 278 281 283 283 284 286 286 286 291 296
313 312 311 310 309 307 304 300 296 292 290 289 289 290 291 291 291 286 278 271 267 268 271 275 275 273 273 273 273 274 273 272 274 276 278 277 277 279 279 282 288 293
309 308 308 307 307 306 305 302 299 293 288 285 284 285 287 289 291 290 286 277 269 266 267 269 269 268 270 271 270 270 270 269 269 271 272 270 268 267 270 275 280 287
307 305 304 303 303 304 303 303 300 297 291 284 280 280 282 285 289 290 289 284 273 266 264 264 264 264 267 268 267 266 264 264 264 264 264 263 258 256 258 264 272 281
306 303 301 300 300 301 302 302 301 298 294 285 277 275 276 279 285 287 288 286 279 271 266 263 261 262 265 267 267 264 260 258 258 256 254 253 250 247 244 252 265 276
306 303 301 300 299 300 301 302 302 300 297 290 280 274 271 273 277 283 284 283 281 277 270 264 260 259 262 266 266 265 261 256 253 248 244 244 242 236 233 244 258 267
308 305 302 301 300 300 300 301 301 301 299 294 286 275 268 266 269 275 278 280 282 277 265 260 257 253 256 263 263 262 260 255 250 243 235 236 236 227 225 238 250 256
309 306 304 303 302 301 300 299 299 299 299 296 290 280 269 262 262 267 271 274 279 273 257 253 253 249 253 259 258 256 256 252 247 240 230 229 230 223 219 230 243 248
309 308 306 305 304 301 299 298 296 295 295 295 292 284 272 260 257 260 264 266 271 271 263 257 256 253 253 256 256 253 251 247 244 237 228 226 226 222 218 223 235 240
309 309 308 307 305 302 299 297 294 292 291 291 290 285 274 260 253 254 258 261 262 267 268 263 259 257 256 254 254 253 249 245 242 235 226 224 224 221 218 220 226 230
311 311 310 309 307 305 302 299 295 291 288 287 286 283 274 259 251 249 251 255 256 259 264 262 255 254 256 253 251 253 251 246 242 235 226 222 223 221 218 219 221 221
314 314 314 313 312 310 307 304 299 294 289 286 283 281 273 259 251 247 245 247 249 249 256 262 255 248 249 252 251 251 251 248 243 238 229 223 222 221 219 218 218 216
316 317 317 318 318 316 314 312 308 302 295 289 284 279 272 259 249 245 243 243 244 242 247 260 259 243 239 247 254 253 249 247 244 240 234 227 223 221 220 218 217 215
319 319 320 321 322 320 318 318 316 312 306 299 289 279 270 260 248 243 242 243 243 241 240 247 252 243 237 241 250 253 249 244 242 239 234 230 225 222 221 219 216 215
322 321 323 324 324 322 320 319 318 316 313 308 300 285 270 259 249 240 239 242 244 241 237 236 239 241 239 237 241 248 250 244 239 236 232 230 228 224 221 219 217 215
323 323 324 325 325 323 320 320 318 316 314 311 306 295 275 258 247 240 236 239 243 243 240 238 237 237 238 235 235 241 247 245 238 232 229 228 227 225 222 221 219 216
324 324 325 325 325 323 321 320 319 317 315 311 306 301 288 264 247 240 235 235 240 244 242 240 240 238 237 236 233 234 240 244 238 229 226 226 225 224 223 222 220 218
Height
5799 5798 5796 5794 5793 5792 5790 5788 5787 5786 5785 5784 5782 5781 5779 5778 5777 5776 5775 5775 5773 5772 5770 5769 5767 5766 5766 5765 5765 5764 5763 5762 5761 5760 5759 5758 5756 5755 5754 5753 5751 5750
5796 5796 5795 5793 5791 5790 5788 5787 5786 5785 5784 5782 5780 5778 5777 5775 5774 5774 5773 5772 5771 5769 5768 5766 5765 5763 5763 5762 5762 5761 5761 5759 5758 5757 5756 5755 5753 5752 5751 5750 5749 5747
5795 5795 5794 5792 5790 5788 5787 5785 5783 5782 5780 5779 5778 5777 5774 5772 5770 5770 5770 5769 5768 5766 5765 5763 5762 5761 5760 5759 5759 5758 5758 5757 5756 5755 5753 5752 5751 5749 5748 5747 5746 5745
5795 5793 5792 5790 5789 5787 5785 5782 5780 5778 5776 5775 5775 5774 5772 5769 5768 5768 5767 5766 5764 5763 5762 5761 5759 5758 5757 5756 5756 5755 5754 5754 5753 5752 5751 5750 5748 5747 5746 5744 5743 5743
5793 5791 5789 5788 5786 5784 5782 5780 5777 5775 5772 5771 5772 5771 5770 5768 5767 5765 5764 5762 5761 5760 5759 5757 5756 5755 5754 5753 5752 5751 5751 5750 5749 5749 5748 5747 5745 5744 5743 5742 5741 5741
5791 5788 5786 5785 5783 5781 5779 5777 5775 5772 5770 5768 5768 5768 5767 5765 5763 5761 5760 5759 5757 5756 5755 5754 5753 5752 5751 5750 5749 5748 5748 5747 5746 5746 5745 5745 5743 5742 5741 5739 5739 5739
5789 5786 5784 5782 5779 5777 5775 5774 5772 5770 5767 5766 5764 5763 5763 5762 5759 5757 5757 5756 5755 5753 5752 5751 5750 5749 5748 5747 5746 5746 5745 5744 5743 5743 5742 5742 5741 5740 5738 5737 5737 5737
5786 5784 5782 5779 5776 5774 5772 5771 5769 5767 5765 5763 5762 5760 5759 5758 5756 5754 5754 5753 5752 5751 5750 5749 5748 5747 5745 5744 5743 5742 5742 5741 5741 5740 5740 5739 5738 5737 5736 5735 5736 5736
5783 5781 5779 5776 5774 5771 5769 5768 5766 5764 5762 5760 5758 5757 5755 5754 5752 5751 5750 5750 5749 5748 5747 5746 5745 5744 5742 5741 5739 5739 5739 5738 5738 5737 5737 5737 5736 5735 5734 5733 5734 5734
5779 5776 5774 5772 5770 5768 5766 5764 5762 5760 5758 5756 5755 5753 5752 5750 5749 5747 5746 5746 5745 5744 5744 5743 5742 5741 5740 5738 5736 5735 5735 5735 5735 5735 5735 5734 5733 5732 5732 5732 5732 5732
5775 5772 5770 5767 5765 5763 5761 5759 5758 5756 5754 5753 5751 5749 5748 5747 5745 5744 5742 5741 5740 5740 5739 5739 5738 5738 5737 5736 5734 5733 5732 5732 5732 5732 5732 5732 5731 5730 5730 5730 5731 5730
5771 5768 5765 5762 5760 5758 5755 5753 5752 5750 5749 5748 5747 5745 5744 5743 5742 5740 5738 5737 5736 5735 5735 5735 5734 5734 5734 5733 5732 5730 5729 5729 5729 5729 5729 5729 5729 5729 5729 5729 5729 5729
5767 5764 5760 5757 5754 5751 5749 5747 5745 5744 5743 5742 5741 5741 5740 5739 5738 5736 5734 5732 5730 5730 5730 5730 5730 5730 5730 5730 5729 5728 5726 5726 5725 5726 5726 5727 5727 5727 5727 5728 5728 5727
5762 5759 5755 5752 5748 5745 5742 5740 5739 5738 5737 5736 5736 5735 5735 5734 5733 5731 5729 5728 5726 5726 5726 5726 5726 5726 5726 5726 5726 5725 5724 5723 5722 5722 5723 5724 5724 5725 5726 5726 5726 5726
5757 5753 5749 5746 5742 5739 5737 5734 5733 5731 5731 5730 5730 5730 5729 5729 5728 5726 5724 5723 5722 5723 5723 5722 5721 5721 5722 5722 5723 5723 5722 5720 5719 5719 5720 5721 5722 5723 5724 5724 5724 5724
5750 5746 5742 5738 5735 5733 5730 5728 5726 5724 5724 5724 5724 5724 5724 5723 5721 5720 5719 5719 5718 5719 5718 5716 5715 5716 5717 5718 5719 5719 5718 5717 5716 5716 5717 5718 5719 5721 5722 5722 5722 5723
5743 5738 5734 5729 5727 5725 5722 5720 5718 5717 5716 5716 5717 5717 5717 5717 5715 5714 5714 5715 5714 5714 5713 5711 5711 5712 5713 5713 5714 5715 5715 5714 5714 5714 5714 5715 5716 5718 5719 5720 5720 5721
5733 5730 5726 5721 5718 5716 5714 5711 5709 5708 5708 5708 5709 5710 5710 5710 5709 5708 5709 5710 5710 5710 5709 5708 5708 5708 5709 5710 5710 5711 5712 5711 5711 5711 5711 5712 5714 5715 5716 5717 5718 5718
5722 5720 5718 5714 5709 5706 5704 5702 5700 5699 5699 5700 5701 5702 5703 5703 5703 5703 5703 5704 5705 5705 5706 5706 5705 5705 5706 5707 5707 5708 5709 5708 5708 5708 5709 5709 5711 5712 5714 5715 5715 5716
5713 5710 5708 5706 5701 5696 5694 5692 5691 5689 5689 5691 5692 5694 5696 5697 5697 5697 5697 5698 5700 5701 5701 5702 5702 5702 5702 5703 5704 5704 5705 5706 5706 5706 5706 5707 5708 5709 5711 5712 5713 5714
5705 5700 5698 5696 5693 5688 5685 5684 5682 5680 5680 5682 5684 5686 5688 5690 5690 5690 5691 5692 5694 5696 5696 5697 5698 5698 5698 5699 5700 5701 5702 5703 5704 5704 5704 5704 5705 5706 5708 5710 5710 5711
5698 5694 5690 5688 5686 5682 5679 5677 5676 5674 5673 5674 5676 5677 5680 5682 5684 5684 5685 5686 5687 5689 5691 5692 5693 5694 5694 5695 5696 5697 5698 5699 5701 5701 5701 5701 5702 5703 5705 5707 5708 5709
5692 5689 5686 5683 5681 5678 5675 5673 5671 5669 5668 5668 5669 5670 5671 5674 5676 5677 5678 5679 5680 5682 5685 5687 5688 5689 5691 5691 5692 5693 5694 5696 5697 5698 5699 5699 5699 5700 5702 5704 5705 5706
5687 5683 5681 5680 5677 5674 5671 5669 5667 5666 5664 5663 5663 5663 5664 5666 5669 5671 5672 5673 5674 5676 5679 5681 5682 5684 5686 5688 5688 5689 5690 5692 5693 5695 5696 5696 5697 5698 5699 5701 5703 5704
5683 5679 5677 5675 5673 5670 5667 5665 5664 5662 5660 5659 5658 5658 5658 5660 5662 5664 5665 5666 5668 5670 5672 5674 5676 5678 5681 5683 5684 5685 5687 5688 5690 5691 5692 5693 5694 5695 5696 5698 5700 5701
5681 5677 5674 5671 5669 5666 5663 5661 5660 5658 5657 5656 5655 5654 5654 5654 5655 5658 5659 5661 5663 5664 5666 5669 5671 5673 5675 5677 5680 5681 5683 5684 5686 5687 5688 5690 5691 5692 5693 5695 5697 5699